Location: Royer Oaks
(36.2112°N, 118.8127°W)
Time: 09:56:28
(UTC-07:00)

Envisat - Visible Passes

Search period start: 04 August 2021 00:00
Search period end: 14 August 2021 00:00
Orbit: 764 x 766 km, 98.2° (Epoch: 03 August)

Date Brightness Start Highest point End Pass type
(mag) Time Alt. Az. Time Alt. Az. Time Alt. Az.
05 Aug 5.3 05:20:48 10° NE 05:25:01 26° E 05:29:12 10° SSE visible
06 Aug 6.1 04:46:54 10° E 04:47:51 10° E 04:48:47 10° E visible
08 Aug 5.6 05:09:44 10° NE 05:13:27 20° E 05:17:08 10° SE visible
10 Aug 4.7 05:34:16 10° NNE 05:38:57 36° E 05:43:36 10° SSE visible
11 Aug 5.8 04:58:53 10° NE 05:01:52 15° E 05:04:48 10° SE visible
13 Aug 5.1 05:23:03 10° NE 05:27:24 28° E 05:31:43 10° SSE visible
